SENTINEL-5P (42969 NORAD) Tracking and Keplerian Element Data

This shows tracking and keplerian element data for the satellite.

Feedback or suggestion? Click here.




ElementValue
Catalog42969
NameSENTINEL-5P
Epoch Orbit5651
Epoch Day319.79879984
Epoch Year2018
RAAN257.3736
Inclination98.7127
Eccentricity0.0001015
Argument of Perigee81.9887
Mean Anonmoly278.1404
Mean Motion14.19548509
Decay Rate-2E-08
L11 42969U 17064A 18319.79879984 -.00000002 00000-0 19713-4 0 9999
L22 42969 98.7127 257.3736 0001015 81.9887 278.1404 14.19548509 56516

Live tracking and technical data element details for SENTINEL-5P (NORAD 42969). SENTINEL-5P can be tracked NOW for your location showing map with azimuth and elevation plus other details from your city location.

Track the satellite on the map from your city or location and see movement details for azimuth, elevation, latitude, longitude, range, height, and movement on the map or in text.







IsCatalogInMostPopularTable: catalog: 42969, numindb: 145
Update: records affected: 1



GetName: 42969 SENTINEL-5P

Hit Count: updated at: Fri, 16 Nov 2018 10:12:14 GMT